Location: Chagrin Falls Park
(41.4139°N, 81.3865°W)
Time: 10:59:48
(UTC+00:00)

STARLINK-2646 - Visible Passes

Search period start: 06 December 2021 00:00
Search period end: 16 December 2021 00:00
Orbit: 546 x 548 km, 53.1° (Epoch: 06 December)

Date Brightness Start Highest point End Pass type
(mag) Time Alt. Az. Time Alt. Az. Time Alt. Az.
06 Dec 5.6 23:11:27 10° NW 23:14:05 16° N 23:15:41 13° NNE visible
07 Dec 5.6 23:05:22 10° NW 23:07:58 16° N 23:09:39 13° NNE visible
08 Dec 6.5 00:45:07 10° NW 00:45:15 11° NW 00:45:15 11° NW visible
08 Dec 5.5 22:59:12 10° NW 23:01:51 16° N 23:03:39 13° NNE visible
09 Dec 6.3 00:38:44 10° NW 00:39:15 13° NW 00:39:15 13° NW visible
09 Dec 5.5 22:52:58 10° NW 22:55:42 17° N 22:57:42 13° NE visible
10 Dec 6.0 00:32:20 10° NW 00:33:18 16° NNW 00:33:18 16° NNW visible
10 Dec 5.4 22:46:41 10° NNW 22:49:33 18° N 22:51:47 12° NE visible
11 Dec 5.7 00:25:56 10° NW 00:27:24 20° NNW 00:27:24 20° NNW visible
11 Dec 5.2 22:40:20 10° NNW 22:43:23 19° NNE 22:45:58 12° ENE visible
12 Dec 5.2 00:19:31 10° NW 00:21:35 27° NW 00:21:35 27° NW visible
12 Dec 5.1 22:33:57 10° NW 22:37:10 21° NNE 22:40:16 11° ENE visible
13 Dec 4.6 00:13:07 10° NW 00:15:53 40° NW 00:15:53 40° NW visible
13 Dec 4.9 22:27:32 10° NW 22:30:56 24° NNE 22:34:20 10° ENE visible
14 Dec 3.8 00:06:44 10° NW 00:10:21 67° WNW 00:10:21 67° WNW visible
14 Dec 4.7 22:21:05 10° NW 22:24:40 28° NNE 22:28:14 10° E visible
15 Dec 3.9 00:00:22 10° WNW 00:04:27 65° SW 00:05:04 56° S visible
